Location: Bidwell Hollow
(37.7387°N, 90.1707°W)
Time: 02:10:23
(UTC+00:00)

Transit 2A - All Passes

Search period start: 14 May 2026 00:00
Search period end: 24 May 2026 00:00
Orbit: 594 x 950 km, 66.7° (Epoch: 13 May)

Date Brightness Start Highest point End Pass type
(mag) Time Alt. Az. Time Alt. Az. Time Alt. Az.
14 May - 06:19:53 10° N 06:24:13 30° NE 06:28:12 10° ESE visible
14 May - 08:03:09 10° NW 08:07:01 25° WSW 08:10:39 10° SSW visible
14 May - 20:54:30 10° S 21:00:22 44° ESE 21:05:57 10° NE daylight
14 May - 22:38:07 10° WSW 22:43:32 31° NW 22:48:41 10° N daylight
15 May - 05:43:55 10° N 05:47:33 20° NE 05:50:57 10° E visible
15 May - 07:26:17 10° NW 07:30:47 42° WSW 07:34:58 10° S visible
15 May - 20:18:50 10° SSE 20:24:04 29° ESE 20:29:06 10° NE daylight
15 May - 22:01:03 10° SW 22:06:57 45° WNW 22:12:33 10° NNE daylight
16 May - 05:08:19 10° NNE 05:10:47 14° NE 05:13:09 10° ENE visible
16 May - 06:49:41 10° NNW 06:54:28 74° WSW 06:58:52 10° SSE visible
16 May - 19:43:40 10° SSE 19:47:51 19° ESE 19:51:54 10° ENE daylight
16 May - 21:24:16 10° SW 21:30:27 66° WNW 21:36:17 10° NNE daylight
16 May - 23:12:09 10° WNW 23:14:30 12° NW 23:16:48 10° NNW daylight
17 May - 06:13:15 10° NNW 06:18:04 67° ENE 06:22:28 10° SE visible
17 May - 07:59:50 10° W 08:00:14 10° WSW 08:00:37 10° WSW visible
17 May - 19:09:36 10° ESE 19:11:40 12° ESE 19:13:42 10° E daylight
17 May - 20:47:45 10° SSW 20:54:00 85° ESE 20:59:54 10° NNE daylight
17 May - 22:33:46 10° W 22:37:42 17° NW 22:41:28 10° N daylight
18 May - 05:37:00 10° NNW 05:41:34 40° NE 05:45:46 10° SE visible
18 May - 07:21:00 10° WNW 07:24:06 18° WSW 07:27:05 10° SSW visible
18 May - 20:11:33 10° S 20:17:38 57° ESE 20:23:23 10° NE daylight
18 May - 21:56:05 10° WSW 22:00:59 25° NW 22:05:40 10° N daylight
19 May - 05:00:54 10° N 05:04:58 26° NE 05:08:45 10° ESE visible
19 May - 06:43:51 10° NW 06:47:55 30° WSW 06:51:44 10° S visible
19 May - 19:35:37 10° S 19:41:17 38° ESE 19:46:41 10° NE daylight
19 May - 21:18:48 10° WSW 21:24:22 35° NW 21:29:37 10° N daylight
20 May - 04:25:02 10° N 04:28:16 17° NE 04:31:20 10° E visible
20 May - 06:07:04 10° NW 06:11:39 51° WSW 06:15:54 10° S visible
20 May - 19:00:06 10° SSE 19:05:01 25° ESE 19:09:45 10° NE daylight
20 May - 20:41:49 10° SW 20:47:49 50° WNW 20:53:26 10° NNE daylight
21 May - 03:49:44 10° NNE 03:51:29 12° NE 03:53:12 10° ENE visible
21 May - 05:30:32 10° NNW 05:35:19 87° WSW 05:39:42 10° SSE visible
21 May - 18:25:10 10° SE 18:28:48 16° ESE 18:32:20 10° ENE daylight
21 May - 20:05:08 10° SSW 20:11:20 75° WNW 20:17:09 10° NNE daylight
21 May - 21:52:20 10° WNW 21:55:14 14° NW 21:58:02 10° NNW daylight
22 May - 04:54:10 10° NNW 04:58:52 56° ENE 05:03:11 10° SE visible
22 May - 06:39:21 10° W 06:41:09 12° WSW 06:42:56 10° SW visible
22 May - 19:28:43 10° SSW 19:34:54 75° ESE 19:40:44 10° NNE daylight
22 May - 21:14:14 10° W 21:18:28 19° NW 21:22:30 10° N daylight
23 May - 04:17:57 10° NNW 04:22:20 34° NE 04:26:24 10° ESE visible
23 May - 06:01:34 10° WNW 06:05:01 21° WSW 06:08:18 10° SSW visible
23 May - 18:52:34 10° S 18:58:32 50° ESE 19:04:09 10° NE daylight
23 May - 20:36:41 10° WSW 20:41:47 27° NW 20:46:38 10° N daylight
